Flag for Romania Weather past 2 weeks in Cluj-Napoca, Romania

Now
50 °F

Clear.


Feels Like: 47 °F
Forecast: 44 / 75 °F
Wind: 8 mph from West

Location: Cluj Airport-Napoca

Current Time: Apr 25, 2015 at 3:23:48 AM

Latest Report: Apr 25, 2015 at 3:00 AM


Visibility: 10 mi

Pressure: 30.01 "Hg

Humidity: 62%

Dew point: 37 °F

Location of Cluj-NapocaLocation

Historic Weather in Cluj-Napoca — Graph

°F

Cluj-Napoca temperature yesterday

Maximum temperature yesterday: 72 °F (at 4:00 PM)
Minimum temperature yesterday: 36 °F (at 6:30 AM)
Average temperature yesterday: 56 °F

Past Weeks' High & Low Weather Summary

 TemperatureHumidityPressure
High77 °F (Apr 16, 3:30 PM)100% (Apr 18, 1:00 AM)30.42 "Hg (Apr 18, 1:00 AM)
Low28 °F (Apr 10, 7:00 AM)17% (Apr 10, 2:30 PM)29.71 "Hg (Apr 18, 5:00 AM)
Average52 °F53%30.08 "Hg
* Reported Apr 10 2:00 AM — Apr 25 2:00 AM, Cluj-Napoca, Weather by CustomWeather, © 2015

Note: Actual official high and low records may vary slightly from our data, if they occured in-between our weather recording intervals... More about our weather records

Advertising

Cluj-Napoca weather history for previous 24 hours

 ConditionsComfort  
Time TempWeatherWind HumidityBarometerVisibility
2:00 AM
Sat, Apr 25
50 °FClear.7 mph67%30.01 "Hg10 mi
1:00 AM52 °FClear.8 mph62%30.01 "Hg10 mi
12:00 AM52 °FClear.7 mph62%30.01 "Hg10 mi
11:30 PM
Fri, Apr 24
52 °FClear.6 mph62%30.01 "Hg10 mi
11:00 PM52 °FClear.5 mph67%30.01 "Hg10 mi
10:30 PM54 °FClear.3 mph63%29.98 "Hg10 mi
10:00 PM55 °FClear.2 mph59%29.98 "Hg10 mi
9:30 PM57 °FClear.5 mph55%29.98 "Hg10 mi
9:00 PM61 °FSunny.No wind42%29.98 "Hg10 mi
8:30 PM63 °FSunny.3 mph42%29.98 "Hg10 mi
8:00 PM68 °FSunny.2 mph30%29.95 "Hg10 mi
7:30 PM68 °FSunny.2 mph28%29.95 "Hg10 mi
7:00 PM70 °FPassing clouds.5 mph25%29.95 "HgN/A
6:30 PM70 °FPassing clouds.5 mph25%29.95 "HgN/A
6:00 PM72 °FSunny.2 mph22%29.98 "Hg10 mi
5:30 PM72 °FPassing clouds.5 mph20%29.98 "HgN/A
5:00 PM70 °FSunny.3 mph21%29.98 "Hg10 mi
4:30 PM70 °FSunny.2 mph21%29.98 "Hg10 mi
4:00 PM72 °FPassing clouds.5 mph22%29.98 "HgN/A
3:30 PM70 °FSunny.6 mph23%29.98 "Hg10 mi
3:00 PM68 °FPassing clouds.8 mph26%30.01 "HgN/A
2:30 PM68 °FPassing clouds.8 mph28%30.01 "HgN/A
2:00 PM68 °FPassing clouds.8 mph28%30.01 "HgN/A
1:30 PM66 °FPassing clouds.8 mph30%30.04 "HgN/A
1:00 PM66 °FPassing clouds.9 mph30%30.04 "HgN/A
12:30 PM66 °FPassing clouds.8 mph28%30.04 "HgN/A
12:00 PM64 °FPassing clouds.9 mph34%30.07 "HgN/A
11:00 AM59 °FPassing clouds.6 mph48%30.07 "HgN/A
10:30 AM55 °FPassing clouds.5 mph55%30.07 "HgN/A
10:00 AM52 °FPassing clouds.3 mph54%30.07 "HgN/A
9:30 AM48 °FPassing clouds.3 mph66%30.07 "HgN/A
9:00 AM46 °FSunny.1 mph66%30.09 "Hg10 mi
8:30 AM43 °FSunny.5 mph81%30.09 "Hg10 mi
8:00 AM39 °FSunny.3 mph87%30.09 "Hg10 mi
7:30 AM37 °FSunny.5 mph93%30.07 "Hg10 mi
7:00 AM36 °FClear.3 mph93%30.07 "Hg10 mi
6:30 AM36 °FClear.3 mph93%30.07 "Hg10 mi
6:00 AM37 °FChilly.5 mph93%30.07 "HgN/A
5:30 AM37 °FClear.No wind93%30.07 "Hg10 mi
5:00 AM41 °FClear.3 mph76%30.07 "Hg10 mi
4:00 AM41 °FClear.5 mph81%30.07 "Hg10 mi
3:00 AM41 °FClear.5 mph81%30.07 "Hg10 mi
Weather by CustomWeather, © 2015

See weather overviewHow to use our weather pages